This is the latest recevied weather packets stored in our database for station/object K6CED. If no packets are shown the sender has not sent any weather packets the latest 10 day(s).
| Time | Temp. | Humidity | Pressure | Rain* | Wind** | Luminosity | Snow |
|---|---|---|---|---|---|---|---|
| 1787601069 | 38.89° C | 23% | 1016.5 hPa | 0 mm | - | 817 W/m² | - |
| 1787600764 | 38.89° C | 24% | 1016.5 hPa | 0 mm | - | 822 W/m² | - |
| 1787600460 | 38.33° C | 24% | 1016.5 hPa | 0 mm | - | 829 W/m² | - |
| 1787600155 | 38.33° C | 23% | 1016.4 hPa | 0 mm | - | 835 W/m² | - |
| 1787599852 | 38.33° C | 23% | 1016.3 hPa | 0 mm | - | 842 W/m² | - |
| 1787599548 | 37.78° C | 22% | 1016.6 hPa | 0 mm | - | 844 W/m² | - |
| 1787599243 | 37.78° C | 23% | 1016.9 hPa | 0 mm | - | 845 W/m² | - |
| 1787598939 | 38.33° C | 24% | 1016.9 hPa | 0 mm | - | 843 W/m² | - |
| 1787598634 | 37.78° C | 24% | 1016.9 hPa | 0 mm | - | 838 W/m² | - |
| 1787598329 | 37.78° C | 25% | 1017.1 hPa | 0 mm | - | 836 W/m² | - |
| 1787598026 | 37.78° C | 25% | 1016.9 hPa | 0 mm | - | 836 W/m² | - |
| 1787597725 | 36.67° C | 26% | 1017.1 hPa | 0 mm | - | 833 W/m² | - |
| 1787597424 | 37.22° C | 25% | 1017 hPa | 0 mm | - | 830 W/m² | - |
| 1787597119 | 37.22° C | 27% | 1017.5 hPa | 0 mm | - | 825 W/m² | - |
| 1787596815 | 37.22° C | 25% | 1017.4 hPa | 0 mm | - | 820 W/m² | - |
| 1787596510 | 37.22° C | 25% | 1017.4 hPa | 0 mm | - | 817 W/m² | - |
| 1787596205 | 36.67° C | 25% | 1017.4 hPa | 0 mm | - | 812 W/m² | - |
| 1787595902 | 36.11° C | 25% | 1017.5 hPa | 0 mm | - | 802 W/m² | - |
| 1787595596 | 36.11° C | 27% | 1017.6 hPa | 0 mm | - | 798 W/m² | - |
| 1787595293 | 35° C | 28% | 1017.9 hPa | 0 mm | - | 788 W/m² | - |
| 1787594992 | 35.56° C | 30% | 1017.8 hPa | 0 mm | - | 782 W/m² | - |
| 1787594687 | 35° C | 30% | 1017.8 hPa | 0 mm | - | 777 W/m² | - |
| 1787594385 | 34.44° C | 30% | 1017.8 hPa | 0 mm | - | 765 W/m² | - |
| 1787594080 | 35° C | 30% | 1017.9 hPa | 0 mm | - | 765 W/m² | - |
| 1787593776 | 34.44° C | 30% | 1017.9 hPa | 0 mm | - | 710 W/m² | - |
* Rain latest hour (hover to see other rain measurements)
** Current wind speed in m/s (hover to see current wind gust speed)